SUNSTORM (49068 NORAD) Tracking and Keplerian Element Data

This shows tracking and keplerian element data for the satellite.

Feedback or suggestion? Click here.




ElementValue
Catalog49068
NameSUNSTORM
Epoch Orbit494
Epoch Day262.07289689
Epoch Year2021
RAAN335.2392
Inclination97.5566
Eccentricity0.0029358
Argument of Perigee140.6203
Mean Anonmoly219.7167
Mean Motion15.07195346
Decay Rate1.38E-05
L11 49068U 21073C 21262.07289689 .00001380 00000-0 94972-4 0 9999
L22 49068 97.5566 335.2392 0029358 140.6203 219.7167 15.07195346 4948

Live tracking and technical data element details for SUNSTORM (NORAD 49068). SUNSTORM can be tracked NOW for your location showing map with azimuth and elevation plus other details from your city location.

Track the satellite on the map from your city or location and see movement details for azimuth, elevation, latitude, longitude, range, height, and movement on the map or in text.







IsCatalogInMostPopularTable: catalog: 49068, numindb: 4
Update: records affected: 1



GetName: 49068 SUNSTORM

Hit Count: updated at: Fri, 24 Sep 2021 17:23:53 GMT